When you browse on this site, cookies collect data to enhance your experience and personalize the content and advertising you see.
Visit our Privacy Policy to learn more. By continuing to use the site, you agree to this use of cookies and data.
  • în România
  • Lista ţărilor
  • Pe 7 zile
  • Temperatura apei
  • Hartă satelitară
  • Meteo pe hartă
  • Widget-uri
  • user-avatar
    Intrare

    Meteo pe oră la Vejle

    Astăzi, 25 Martie, Luni

    Timp Temperatura Precipitaţii Vânt Presiune Umiditate
    00:00 +3°C° 0.6 mm 6 m/s 750 mmHg 82%
    01:00 +3°C° 0 mm 7 m/s 749 mmHg 84%
    02:00 +2°C° 0.1 mm 6 m/s 749 mmHg 84%
    03:00 +1°C° 0.1 mm 5 m/s 748 mmHg 84%
    04:00 +1°C° 0.1 mm 5 m/s 748 mmHg 85%
    05:00 +1°C° 0 mm 4 m/s 748 mmHg 85%
    06:00 0°C° 0 mm 4 m/s 748 mmHg 85%
    07:00 0°C° 0 mm 4 m/s 749 mmHg 86%
    08:00 +1°C° 0 mm 5 m/s 749 mmHg 79%
    09:00 +3°C° 0 mm 6 m/s 750 mmHg 72%
    10:00 +4°C° 0 mm 6 m/s 751 mmHg 65%
    11:00 +5°C° 0 mm 7 m/s 752 mmHg 65%
    12:00 +5°C° 0 mm 7 m/s 753 mmHg 66%
    13:00 +5°C° 0 mm 7 m/s 754 mmHg 67%
    14:00 +6°C° 0 mm 7 m/s 755 mmHg 65%
    15:00 +7°C° 0 mm 6 m/s 756 mmHg 63%
    16:00 +8°C° 0 mm 6 m/s 756 mmHg 61%
    17:00 +6°C° 0 mm 5 m/s 757 mmHg 65%
    18:00 +5°C° 0 mm 5 m/s 757 mmHg 68%
    19:00 +4°C° 0 mm 4 m/s 758 mmHg 72%
    20:00 +3°C° 0 mm 4 m/s 758 mmHg 74%
    21:00 +3°C° 0 mm 4 m/s 758 mmHg 77%
    22:00 +1°C° 0 mm 4 m/s 759 mmHg 79%
    23:00 +1°C° 0 mm 5 m/s 759 mmHg 79%

    Mâine, 26 Martie, Marţi

    Timp Temperatura Precipitaţii Vânt Presiune Umiditate
    00:00 +1°C° 0 mm 6 m/s 759 mmHg 79%
    01:00 +1°C° 0 mm 6 m/s 759 mmHg 78%
    02:00 +1°C° 0 mm 6 m/s 759 mmHg 80%
    03:00 +1°C° 0 mm 6 m/s 758 mmHg 82%
    04:00 0°C° 0 mm 7 m/s 758 mmHg 84%
    05:00 0°C° 0 mm 7 m/s 758 mmHg 82%
    06:00 0°C° 0 mm 7 m/s 758 mmHg 80%
    07:00 +2°C° 0 mm 7 m/s 758 mmHg 78%
    08:00 +3°C° 0 mm 7 m/s 759 mmHg 73%
    09:00 +4°C° 0 mm 8 m/s 759 mmHg 68%
    10:00 +5°C° 0 mm 9 m/s 759 mmHg 62%
    11:00 +6°C° 0 mm 8 m/s 759 mmHg 60%
    12:00 +6°C° 0 mm 8 m/s 760 mmHg 57%
    13:00 +8°C° 0 mm 7 m/s 760 mmHg 55%
    14:00 +8°C° 0 mm 7 m/s 760 mmHg 61%
    15:00 +7°C° 0 mm 6 m/s 760 mmHg 68%
    16:00 +7°C° 0 mm 6 m/s 760 mmHg 74%
    17:00 +7°C° 0 mm 6 m/s 760 mmHg 77%
    18:00 +6°C° 0 mm 5 m/s 760 mmHg 79%
    19:00 +6°C° 0 mm 5 m/s 760 mmHg 81%
    20:00 +5°C° 0.2 mm 5 m/s 760 mmHg 83%
    21:00 +5°C° 0.2 mm 5 m/s 760 mmHg 85%
    22:00 +5°C° 0.2 mm 5 m/s 760 mmHg 87%
    23:00 +4°C° 0.3 mm 6 m/s 760 mmHg 88%

    Poimâine, 27 Martie, Miercuri

    Timp Temperatura Precipitaţii Vânt Presiune Umiditate
    00:00 +4°C° 0.3 mm 6 m/s 759 mmHg 89%
    01:00 +4°C° 0.3 mm 6 m/s 759 mmHg 90%
    02:00 +4°C° 0.1 mm 6 m/s 759 mmHg 90%
    03:00 +5°C° 0.1 mm 6 m/s 759 mmHg 91%
    04:00 +5°C° 0.1 mm 6 m/s 758 mmHg 91%
    05:00 +5°C° 0 mm 6 m/s 759 mmHg 91%
    06:00 +5°C° 0 mm 6 m/s 759 mmHg 91%
    07:00 +6°C° 0 mm 5 m/s 759 mmHg 92%
    08:00 +7°C° 0 mm 6 m/s 759 mmHg 89%
    09:00 +8°C° 0 mm 6 m/s 760 mmHg 86%
    10:00 +8°C° 0 mm 7 m/s 760 mmHg 82%
    11:00 +9°C° 0 mm 7 m/s 760 mmHg 79%
    12:00 +9°C° 0 mm 7 m/s 760 mmHg 76%
    13:00 +9°C° 0 mm 7 m/s 761 mmHg 72%
    14:00 +10°C° 0 mm 7 m/s 761 mmHg 69%
    15:00 +10°C° 0 mm 7 m/s 761 mmHg 66%
    16:00 +10°C° 0 mm 7 m/s 761 mmHg 63%
    17:00 +9°C° 0 mm 6 m/s 761 mmHg 68%
    18:00 +7°C° 0 mm 5 m/s 762 mmHg 74%
    19:00 +6°C° 0 mm 5 m/s 762 mmHg 79%
    20:00 +6°C° 0 mm 4 m/s 762 mmHg 84%
    21:00 +5°C° 0 mm 4 m/s 763 mmHg 89%
    22:00 +5°C° 0 mm 4 m/s 763 mmHg 95%
    23:00 +5°C° 0 mm 4 m/s 764 mmHg 94%

    28 Martie, Joi

    Timp Temperatura Precipitaţii Vânt Presiune Umiditate
    00:00 +5°C° 0 mm 4 m/s 764 mmHg 94%
    01:00 +6°C° 0 mm 4 m/s 764 mmHg 93%
    02:00 +5°C° 0 mm 4 m/s 764 mmHg 94%
    03:00 +5°C° 0 mm 4 m/s 765 mmHg 95%
    04:00 +5°C° 0 mm 4 m/s 765 mmHg 96%
    05:00 +5°C° 0 mm 5 m/s 765 mmHg 95%
    06:00 +6°C° 0 mm 5 m/s 765 mmHg 94%
    07:00 +6°C° 0 mm 5 m/s 766 mmHg 93%
    08:00 +7°C° 0 mm 5 m/s 766 mmHg 88%
    09:00 +9°C° 0 mm 5 m/s 766 mmHg 83%
    10:00 +10°C° 0 mm 5 m/s 767 mmHg 78%
    11:00 +11°C° 0 mm 6 m/s 767 mmHg 74%
    12:00 +13°C° 0 mm 6 m/s 767 mmHg 69%
    13:00 +14°C° 0 mm 6 m/s 768 mmHg 65%
    14:00 +14°C° 0 mm 6 m/s 767 mmHg 65%
    15:00 +14°C° 0 mm 6 m/s 767 mmHg 65%
    16:00 +14°C° 0 mm 5 m/s 767 mmHg 65%
    17:00 +12°C° 0 mm 5 m/s 767 mmHg 70%
    18:00 +11°C° 0 mm 4 m/s 767 mmHg 75%
    19:00 +9°C° 0 mm 3 m/s 767 mmHg 80%
    20:00 +9°C° 0 mm 3 m/s 768 mmHg 83%
    21:00 +8°C° 0 mm 3 m/s 768 mmHg 86%
    22:00 +7°C° 0 mm 3 m/s 768 mmHg 89%
    23:00 +7°C° 0 mm 3 m/s 768 mmHg 90%

    29 Martie, Vineri

    Timp Temperatura Precipitaţii Vânt Presiune Umiditate
    00:00 +7°C° 0 mm 3 m/s 768 mmHg 91%
    01:00 +5°C° 0 mm 3 m/s 768 mmHg 92%
    02:00 +5°C° 0 mm 3 m/s 768 mmHg 93%
    03:00 +5°C° 0 mm 3 m/s 767 mmHg 93%
    04:00 +5°C° 0 mm 3 m/s 767 mmHg 94%
    05:00 +5°C° 0 mm 4 m/s 767 mmHg 93%
    06:00 +5°C° 0 mm 4 m/s 767 mmHg 92%
    07:00 +5°C° 0 mm 4 m/s 767 mmHg 90%
    08:00 +6°C° 0 mm 5 m/s 767 mmHg 82%
    09:00 +8°C° 0 mm 5 m/s 767 mmHg 75%
    10:00 +9°C° 0 mm 6 m/s 767 mmHg 67%
    11:00 +10°C° 0 mm 6 m/s 767 mmHg 65%
    12:00 +11°C° 0 mm 7 m/s 766 mmHg 63%
    13:00 +12°C° 0 mm 7 m/s 766 mmHg 61%
    14:00 +11°C° 0 mm 7 m/s 765 mmHg 62%
    15:00 +11°C° 0 mm 8 m/s 765 mmHg 64%
    16:00 +11°C° 0 mm 8 m/s 764 mmHg 66%
    17:00 +10°C° 0 mm 7 m/s 764 mmHg 71%
    18:00 +8°C° 0 mm 6 m/s 764 mmHg 76%
    19:00 +7°C° 0 mm 6 m/s 764 mmHg 81%
    20:00 +6°C° 0 mm 5 m/s 764 mmHg 85%
    21:00 +6°C° 0 mm 5 m/s 764 mmHg 89%
    22:00 +5°C° 0 mm 5 m/s 764 mmHg 92%
    23:00 +5°C° 0 mm 5 m/s 763 mmHg 93%

    30 Martie, Sâmbătă

    Timp Temperatura Precipitaţii Vânt Presiune Umiditate
    00:00 +5°C° 0 mm 4 m/s 763 mmHg 94%
    01:00 +4°C° 0 mm 4 m/s 763 mmHg 95%
    02:00 +4°C° 0 mm 4 m/s 762 mmHg 95%
    03:00 +4°C° 0 mm 4 m/s 762 mmHg 95%
    04:00 +4°C° 0 mm 4 m/s 761 mmHg 95%
    05:00 +3°C° 0 mm 5 m/s 761 mmHg 94%
    06:00 +3°C° 0 mm 5 m/s 761 mmHg 94%
    07:00 +3°C° 0 mm 5 m/s 760 mmHg 94%
    08:00 +5°C° 0 mm 6 m/s 760 mmHg 86%
    09:00 +8°C° 0 mm 6 m/s 760 mmHg 79%
    10:00 +10°C° 0 mm 7 m/s 759 mmHg 71%
    11:00 +11°C° 0 mm 8 m/s 759 mmHg 64%
    12:00 +11°C° 0 mm 8 m/s 758 mmHg 58%
    13:00 +12°C° 0 mm 8 m/s 757 mmHg 51%
    14:00 +11°C° 0 mm 8 m/s 757 mmHg 54%
    15:00 +11°C° 0 mm 8 m/s 756 mmHg 56%
    16:00 +10°C° 0 mm 8 m/s 756 mmHg 59%
    17:00 +9°C° 0 mm 8 m/s 756 mmHg 66%
    18:00 +8°C° 0 mm 7 m/s 755 mmHg 73%
    19:00 +7°C° 0 mm 6 m/s 755 mmHg 81%
    20:00 +5°C° 0 mm 6 m/s 756 mmHg 78%
    21:00 +4°C° 0 mm 6 m/s 756 mmHg 76%
    22:00 +4°C° 0 mm 6 m/s 756 mmHg 73%
    23:00 +3°C° 0 mm 6 m/s 756 mmHg 72%
    Arată mai mult